When you browse on this site, cookies collect data to enhance your experience and personalize the content and advertising you see.
Visit our Privacy Policy to learn more. By continuing to use the site, you agree to this use of cookies and data.
  • Em Portugal
  • Lista de países
  • Para 7 dias
  • Temperatura da água
  • Mapas de satélite
  • Mapa do tempo
  • Widgets de tempo
  • user-avatar
    Iniciar Sessão

    Previsão horária em Karbala

    Hoje, 17 Julho, Quarta-feira

    Tempo Temperatura Precipitação Vento Pressão Humidade
    00:00 +34°C° 0 mm 5 m/s 747 mmHg 27%
    01:00 +34°C° 0 mm 5 m/s 746 mmHg 28%
    02:00 +33°C° 0 mm 5 m/s 746 mmHg 29%
    03:00 +33°C° 0 mm 4 m/s 746 mmHg 30%
    04:00 +33°C° 0 mm 5 m/s 746 mmHg 31%
    05:00 +33°C° 0 mm 5 m/s 747 mmHg 31%
    06:00 +32°C° 0 mm 6 m/s 747 mmHg 32%
    07:00 +34°C° 0 mm 7 m/s 747 mmHg 30%
    08:00 +35°C° 0 mm 7 m/s 747 mmHg 29%
    09:00 +38°C° 0 mm 8 m/s 747 mmHg 28%
    10:00 +39°C° 0 mm 8 m/s 747 mmHg 24%
    11:00 +41°C° 0 mm 8 m/s 747 mmHg 21%
    12:00 +44°C° 0 mm 8 m/s 747 mmHg 18%
    13:00 +44°C° 0 mm 7 m/s 747 mmHg 16%
    14:00 +45°C° 0 mm 7 m/s 746 mmHg 14%
    15:00 +46°C° 0 mm 7 m/s 746 mmHg 13%
    16:00 +45°C° 0 mm 7 m/s 746 mmHg 13%
    17:00 +45°C° 0 mm 6 m/s 746 mmHg 12%
    18:00 +44°C° 0 mm 6 m/s 746 mmHg 12%
    19:00 +41°C° 0 mm 5 m/s 746 mmHg 15%
    20:00 +38°C° 0 mm 4 m/s 746 mmHg 17%
    21:00 +36°C° 0 mm 4 m/s 746 mmHg 19%
    22:00 +36°C° 0 mm 3 m/s 746 mmHg 20%
    23:00 +35°C° 0 mm 3 m/s 746 mmHg 21%

    Amanhã, 18 Julho, Quinta-feira

    Tempo Temperatura Precipitação Vento Pressão Humidade
    00:00 +34°C° 0 mm 2 m/s 746 mmHg 22%
    01:00 +34°C° 0 mm 3 m/s 746 mmHg 22%
    02:00 +35°C° 0 mm 4 m/s 746 mmHg 23%
    03:00 +35°C° 0 mm 4 m/s 746 mmHg 23%
    04:00 +34°C° 0 mm 4 m/s 746 mmHg 24%
    05:00 +34°C° 0 mm 5 m/s 746 mmHg 25%
    06:00 +34°C° 0 mm 5 m/s 747 mmHg 25%
    07:00 +37°C° 0 mm 5 m/s 747 mmHg 22%
    08:00 +40°C° 0 mm 6 m/s 748 mmHg 18%
    09:00 +44°C° 0 mm 6 m/s 748 mmHg 15%
    10:00 +45°C° 0 mm 7 m/s 748 mmHg 13%
    11:00 +46°C° 0 mm 7 m/s 748 mmHg 12%
    12:00 +49°C° 0 mm 7 m/s 747 mmHg 11%
    13:00 +49°C° 0 mm 7 m/s 747 mmHg 11%
    14:00 +50°C° 0 mm 7 m/s 746 mmHg 10%
    15:00 +50°C° 0 mm 7 m/s 746 mmHg 10%
    16:00 +49°C° 0 mm 7 m/s 746 mmHg 11%
    17:00 +49°C° 0 mm 7 m/s 746 mmHg 12%
    18:00 +47°C° 0 mm 6 m/s 745 mmHg 13%
    19:00 +45°C° 0 mm 6 m/s 746 mmHg 15%
    20:00 +42°C° 0 mm 5 m/s 746 mmHg 17%
    21:00 +40°C° 0 mm 5 m/s 746 mmHg 19%
    22:00 +39°C° 0 mm 5 m/s 746 mmHg 20%
    23:00 +37°C° 0 mm 4 m/s 747 mmHg 21%

    Depois de amanhã, 19 Julho, Sexta-feira

    Tempo Temperatura Precipitação Vento Pressão Humidade
    00:00 +36°C° 0 mm 4 m/s 747 mmHg 22%
    01:00 +36°C° 0 mm 4 m/s 746 mmHg 24%
    02:00 +35°C° 0 mm 4 m/s 746 mmHg 26%
    03:00 +34°C° 0 mm 5 m/s 746 mmHg 28%
    04:00 +34°C° 0 mm 5 m/s 747 mmHg 29%
    05:00 +33°C° 0 mm 5 m/s 747 mmHg 30%
    06:00 +33°C° 0 mm 5 m/s 747 mmHg 31%
    07:00 +35°C° 0 mm 6 m/s 747 mmHg 27%
    08:00 +38°C° 0 mm 6 m/s 748 mmHg 24%
    09:00 +40°C° 0 mm 7 m/s 748 mmHg 20%
    10:00 +43°C° 0 mm 7 m/s 748 mmHg 18%
    11:00 +44°C° 0 mm 7 m/s 748 mmHg 17%
    12:00 +45°C° 0 mm 7 m/s 747 mmHg 15%
    13:00 +46°C° 0 mm 6 m/s 747 mmHg 15%
    14:00 +46°C° 0 mm 6 m/s 746 mmHg 14%
    15:00 +47°C° 0 mm 6 m/s 746 mmHg 13%
    16:00 +46°C° 0 mm 6 m/s 746 mmHg 13%
    17:00 +46°C° 0 mm 6 m/s 746 mmHg 14%
    18:00 +45°C° 0 mm 7 m/s 746 mmHg 14%
    19:00 +42°C° 0 mm 6 m/s 746 mmHg 17%
    20:00 +40°C° 0 mm 6 m/s 746 mmHg 20%
    21:00 +39°C° 0 mm 6 m/s 747 mmHg 23%
    22:00 +38°C° 0 mm 6 m/s 747 mmHg 24%
    23:00 +38°C° 0 mm 6 m/s 747 mmHg 24%

    20 Julho, Sábado

    Tempo Temperatura Precipitação Vento Pressão Humidade
    00:00 +36°C° 0 mm 7 m/s 747 mmHg 25%
    01:00 +35°C° 0 mm 6 m/s 747 mmHg 26%
    02:00 +35°C° 0 mm 6 m/s 747 mmHg 28%
    03:00 +34°C° 0 mm 6 m/s 747 mmHg 29%
    04:00 +34°C° 0 mm 6 m/s 747 mmHg 30%
    05:00 +33°C° 0 mm 6 m/s 747 mmHg 31%
    06:00 +33°C° 0 mm 6 m/s 747 mmHg 32%
    07:00 +35°C° 0 mm 7 m/s 748 mmHg 31%
    08:00 +38°C° 0 mm 7 m/s 748 mmHg 30%
    09:00 +39°C° 0 mm 8 m/s 748 mmHg 29%
    10:00 +41°C° 0 mm 8 m/s 748 mmHg 25%
    11:00 +44°C° 0 mm 7 m/s 748 mmHg 21%
    12:00 +46°C° 0 mm 7 m/s 748 mmHg 16%
    13:00 +46°C° 0 mm 6 m/s 747 mmHg 15%
    14:00 +47°C° 0 mm 6 m/s 747 mmHg 14%
    15:00 +48°C° 0 mm 6 m/s 747 mmHg 12%
    16:00 +48°C° 0 mm 5 m/s 746 mmHg 12%
    17:00 +47°C° 0 mm 5 m/s 746 mmHg 12%
    18:00 +47°C° 0 mm 5 m/s 746 mmHg 13%
    19:00 +44°C° 0 mm 4 m/s 746 mmHg 14%
    20:00 +42°C° 0 mm 4 m/s 746 mmHg 16%
    21:00 +40°C° 0 mm 4 m/s 747 mmHg 18%
    22:00 +38°C° 0 mm 4 m/s 746 mmHg 19%
    23:00 +37°C° 0 mm 3 m/s 746 mmHg 20%

    21 Julho, Domingo

    Tempo Temperatura Precipitação Vento Pressão Humidade
    00:00 +36°C° 0 mm 3 m/s 746 mmHg 21%
    01:00 +36°C° 0 mm 4 m/s 746 mmHg 22%
    02:00 +36°C° 0 mm 4 m/s 746 mmHg 22%
    03:00 +36°C° 0 mm 5 m/s 746 mmHg 22%
    04:00 +36°C° 0 mm 5 m/s 746 mmHg 23%
    05:00 +36°C° 0 mm 6 m/s 746 mmHg 24%
    06:00 +35°C° 0 mm 6 m/s 747 mmHg 25%
    07:00 +38°C° 0 mm 6 m/s 747 mmHg 24%
    08:00 +40°C° 0 mm 7 m/s 747 mmHg 23%
    09:00 +43°C° 0 mm 7 m/s 748 mmHg 22%
    10:00 +45°C° 0 mm 7 m/s 747 mmHg 19%
    11:00 +47°C° 0 mm 7 m/s 747 mmHg 16%
    12:00 +50°C° 0 mm 7 m/s 747 mmHg 14%
    13:00 +51°C° 0 mm 7 m/s 747 mmHg 13%
    14:00 +51°C° 0 mm 7 m/s 746 mmHg 12%
    15:00 +52°C° 0 mm 7 m/s 746 mmHg 11%
    16:00 +51°C° 0 mm 7 m/s 745 mmHg 11%
    17:00 +51°C° 0 mm 7 m/s 745 mmHg 11%
    18:00 +50°C° 0 mm 7 m/s 745 mmHg 11%
    19:00 +47°C° 0 mm 6 m/s 746 mmHg 12%
    20:00 +45°C° 0 mm 6 m/s 746 mmHg 13%
    21:00 +42°C° 0 mm 6 m/s 746 mmHg 13%
    22:00 +41°C° 0 mm 6 m/s 746 mmHg 14%
    23:00 +41°C° 0 mm 5 m/s 746 mmHg 15%

    22 Julho, Segunda-feira

    Tempo Temperatura Precipitação Vento Pressão Humidade
    00:00 +40°C° 0 mm 5 m/s 746 mmHg 16%
    01:00 +39°C° 0 mm 5 m/s 746 mmHg 17%
    02:00 +39°C° 0 mm 6 m/s 746 mmHg 18%
    03:00 +39°C° 0 mm 6 m/s 746 mmHg 19%
    04:00 +38°C° 0 mm 6 m/s 746 mmHg 20%
    05:00 +36°C° 0 mm 6 m/s 746 mmHg 22%
    06:00 +36°C° 0 mm 5 m/s 747 mmHg 23%
    07:00 +39°C° 0 mm 6 m/s 747 mmHg 20%
    08:00 +43°C° 0 mm 7 m/s 747 mmHg 17%
    09:00 +45°C° 0 mm 7 m/s 747 mmHg 13%
    10:00 +48°C° 0 mm 8 m/s 747 mmHg 12%
    11:00 +50°C° 0 mm 9 m/s 747 mmHg 10%
    12:00 +53°C° 0 mm 9 m/s 746 mmHg 8%
    13:00 +53°C° 0 mm 9 m/s 746 mmHg 8%
    14:00 +54°C° 0 mm 10 m/s 745 mmHg 8%
    15:00 +54°C° 0 mm 10 m/s 745 mmHg 7%
    16:00 +53°C° 0 mm 10 m/s 745 mmHg 8%
    17:00 +51°C° 0 mm 9 m/s 744 mmHg 9%
    18:00 +51°C° 0 mm 9 m/s 744 mmHg 9%
    19:00 +49°C° 0 mm 8 m/s 745 mmHg 11%
    20:00 +46°C° 0 mm 7 m/s 745 mmHg 12%
    21:00 +44°C° 0 mm 6 m/s 745 mmHg 14%
    22:00 +42°C° 0 mm 6 m/s 745 mmHg 15%
    23:00 +41°C° 0 mm 5 m/s 745 mmHg 15%
    Mostrar mais